[[{"header":{"parameterUnit":"m.s-1","parameterCategory":1,"la1":30.2991,"la2":30.254,"lo1":-89.0895,"lo2":-89.0444,"dy":0.0017,"dx":0.0017,"nx":28,"ny":28,"refTime":"2024-06-16T21:00:00:Z","depth":0,"parameterNumber":2,"parameterNumberName":"U-component_of_WINDS"},"data":[0,0,0,0,0,0,0,0,0,0,0,0,0,0,0,0,0,0,0,0,0,0,0,0,0,0,0,0,0,0,0,0,0,0,0,0,0,0,0,0,0,0,0,0,0,0,0,0,0,0,0,0,0,0,0,0,0,0,-5.7979,-5.798,0,-5.8091,-5.8092,-5.8093,-5.8023,-5.802,-5.8016,-5.8013,-5.812,-5.8126,-5.8132,0,0,0,0,0,0,0,0,0,0,0,0,0,-5.7698,-5.7704,-5.7979,-5.798,-5.7982,-5.809,-5.8092,-5.8093,-5.8023,-5.8019,-5.8015,-5.8012,-5.8118,-5.8125,-5.8132,0,0,0,0,0,0,0,0,0,0,0,0,0,-5.7816,-5.7705,-5.7979,-5.796,-5.796,-5.809,-5.8092,-5.8094,-5.8024,-5.8019,-5.8014,-5.801,-5.8116,-5.8125,-5.8133,-5.8286,0,0,-5.816,-5.8164,0,0,0,0,0,0,0,0,-5.7809,-5.7826,-5.7961,-5.7962,-5.7961,-5.8038,-5.8032,-5.8158,-5.8025,-5.7999,-5.8013,-5.8007,-5.8096,-5.8107,-5.8138,-5.8291,-5.8296,-5.8161,-5.8167,-5.817,-5.8173,0,0,0,0,0,0,0,-5.7801,-5.7821,-5.8023,-5.7963,-5.7963,-5.7944,-5.7955,-5.8056,-5.8074,-5.8001,-5.7997,-5.8011,-5.8095,-5.813,-5.814,-5.8297,-5.8161,-5.8169,-5.8174,-5.8178,-5.8578,-5.8583,0,0,0,0,0,0,-5.7795,-5.7815,-5.8019,-5.8026,-5.7872,-5.7953,-5.7965,-5.8018,-5.8073,-5.8076,-5.8015,-5.8007,-5.8117,-5.813,-5.8143,-5.8323,-5.817,-5.8179,-5.8184,-5.8573,-5.8579,-5.8585,0,0,0,0,0,0,-5.779,-5.7814,-5.8015,-5.7919,-5.7943,-5.7963,-5.8023,-5.8023,-5.8057,-5.8083,-5.8085,-5.8047,-5.8114,-5.8131,-5.8251,-5.8326,-5.8183,-5.8191,-5.8567,-5.8575,-5.8582,-5.8685,0,0,0,0,0,0,-5.7782,-5.7813,-5.7873,-5.7921,-5.7949,-5.8123,-5.8027,-5.8029,-5.8073,-5.8064,-5.8114,-5.8117,-5.8111,-5.8238,-5.826,-5.8335,-5.8198,-5.856,-5.857,-5.858,-5.8675,-5.8695,-5.8713,0,0,0,0,0,-5.7772,-5.7896,-5.7876,-5.7901,-5.8024,-5.8127,-5.8143,-5.8135,-5.808,-5.8139,-5.8155,-5.8116,-5.8315,-5.8251,-5.8275,-5.8354,-5.8555,-5.8567,-5.8579,-5.8666,-5.8691,-5.8713,0,0,0,0,0,0,-5.7853,-5.7902,-5.788,-5.8024,-5.8073,-5.8115,-5.8189,-5.8162,-5.8225,-5.8214,-5.82,-5.8211,-5.8336,-5.8358,-5.8285,-5.8503,-5.8426,-5.8443,-5.8484,-5.8508,-5.8527,-5.8517,-5.8205,0,0,0,0,0,-5.7889,-5.7971,-5.8008,-5.8131,-5.8157,-5.817,-5.8214,-5.8204,-5.8252,-5.8272,-5.8297,-5.8343,-5.8416,-5.8464,-5.8533,-5.8679,-5.8686,-5.8745,-5.8764,-5.878,-5.8793,-5.8869,-5.8894,-5.8624,-5.8624,-5.8624,0,0,-5.7961,-5.7998,-5.805,-5.8149,-5.8185,-5.8267,-5.8187,-5.8278,-5.8337,-5.8285,-5.8399,-5.842,-5.847,-5.8603,-5.8663,-5.8625,-5.887,-5.8795,-5.8807,-5.8812,-5.8884,-5.8909,-5.8932,-5.8632,-5.8631,-5.863,0,0,-5.8134,-5.8172,-5.8278,-5.8316,-5.8373,-5.838,-5.8406,-5.8453,-5.8465,-5.8581,-5.8542,-5.8612,-5.8739,-5.8776,-5.8811,-5.8999,-5.8963,-5.9022,-5.912,-5.9194,-5.9215,-5.9233,-5.9297,-5.932,-5.9036,-5.9037,-5.9037,0,-5.8216,-5.8341,-5.8335,-5.8429,-5.8471,-5.8431,-5.8535,-5.8572,-5.8647,-5.8676,-5.8634,-5.8791,-5.8822,-5.8962,-5.9008,-5.9039,-5.9065,-5.9014,-5.9213,-5.9232,-5.9249,-5.9309,-5.9333,-5.9043,-5.9042,-5.9042,-5.9041,0,-5.8436,-5.8524,-5.8602,-5.8677,-5.873,-5.8829,-5.8835,-5.8888,-5.8875,-5.8886,-5.9002,-5.9039,-5.9113,-5.9146,-5.9133,-5.9284,-5.9258,-5.9215,-5.9136,-5.9281,-5.9337,-5.936,-5.9052,-5.905,-5.9048,-5.9046,0,0,-5.8661,-5.8733,-5.8761,-5.8794,-5.8854,-5.892,-5.9016,-5.9091,-5.9135,-5.9189,-5.9266,-5.9375,-5.9335,-5.9375,-5.9366,-5.9432,-5.9574,-5.938,-5.9381,-5.9411,-5.9737,-5.9766,-5.9793,-5.9553,-5.9557,-5.9561,-5.9731,0,-5.8834,-5.9004,-5.9001,-5.9157,-5.9236,-5.9199,-5.9282,-5.9326,-5.934,-5.9406,-5.942,-5.9496,-5.944,-5.9463,-5.9527,-5.9543,-5.9638,-5.9531,-5.962,-5.9624,-5.9604,-5.9823,-5.9854,-6.0013,-5.9754,-5.9757,-5.976,0,-5.9058,-5.9121,-5.9286,-5.9333,-5.9365,-5.9441,-5.9507,-5.9573,-5.9622,-5.9627,-5.9673,-5.9653,-5.9748,-5.967,-5.9798,-5.9725,-5.9762,-5.9776,-5.9782,-5.9786,-5.9697,-5.9829,-6.0065,-6.0087,-5.9795,-5.9792,-5.979,0,-5.92,-5.9326,-5.944,-5.947,-5.9529,-5.9582,-5.9608,-5.9653,-5.9697,-5.9756,-5.9784,-5.9852,-5.9889,-5.9941,-5.9939,-5.9884,-6.0068,-5.9991,-6.0071,-6.0071,-6.0108,-6.0105,-6.0348,-6.014,-6.0139,-6.0139,-6.0138,0,-5.9391,-5.9492,-5.9504,-5.9574,-5.9685,-5.9681,-5.979,-5.9811,-5.9851,-5.9922,-5.9895,-5.9961,-5.9958,-6.0024,-6.0024,-6.0128,-6.0146,-6.015,-6.0147,-6.015,-6.0149,-6.017,-6.0157,-6.0145,-6.0144,-6.0142,-6.0141,0,-5.9566,-5.9579,-5.97,-5.9747,-5.9761,-5.984,-5.9879,-5.9943,-5.9956,-6.0045,-6.0066,-6.0084,-6.0161,-6.0167,-6.0255,-6.0255,-6.038,-6.0368,-6.0364,-6.036,-6.0439,-6.0429,-6.0701,-6.0735,-6.0508,-6.051,-6.0512,0,-5.9685,-5.9762,-5.9818,-5.9864,-5.9894,-5.997,-6.0016,-6.0015,-6.0063,-6.0124,-6.0181,-6.0256,-6.0315,-6.044,-6.0459,-6.0527,-6.0513,-6.0604,-6.0522,-6.0522,-6.0509,-6.0503,-6.0509,-6.0618,-6.062,-6.0622,-6.0624,0,-5.9893,-5.9896,-5.9964,-6.0035,-6.0091,-6.0146,-6.0197,-6.0237,-6.0241,-6.0297,-6.0376,-6.0423,-6.0514,-6.0588,-6.0654,-6.0678,-6.0651,-6.065,-6.0672,-6.0672,-6.0665,-6.0666,-6.0402,-6.0643,-6.0641,-6.064,-6.0639,-6.0638,-6.0041,-6.0107,-6.0156,-6.0232,-6.0271,-6.032,-6.0382,-6.0403,-6.0471,-6.0546,-6.0541,-6.0628,-6.0673,-6.0759,-6.0789,-6.0856,-6.0824,-6.0856,-6.0864,-6.087,-6.0877,-6.0659,-6.0868,-6.0868,-6.0867,-6.0867,-6.0866,0,-6.0244,-6.0274,-6.0345,-6.0418,-6.0478,-6.0452,-6.0507,-6.0557,-6.0635,-6.0681,-6.0741,-6.0831,-6.0902,-6.0928,-6.0997,-6.1045,-6.1034,-6.1063,-6.1057,-6.1062,-6.0903,-6.0875,-6.107,-6.107,-6.107,-6.107,-6.107,-6.107,-6.0356,-6.0465,-6.0474,-6.0601,-6.063,-6.0717,-6.075,-6.0793,-6.083,-6.0933,-6.0992,-6.101,-6.1047,-6.1118,-6.1181,-6.1187,-6.1211,-6.1245,-6.1244,-6.1094,-6.1073,-6.1054,-6.1028,-6.1251,-6.1251,-6.1397,-6.1399,-6.14]},{"header":{"parameterUnit":"m.s-1","parameterCategory":1,"la1":30.2991,"la2":30.254,"lo1":-89.0895,"lo2":-89.0444,"dy":0.0017,"dx":0.0017,"nx":28,"ny":28,"refTime":"2024-06-16T21:00:00:Z","depth":0,"parameterNumber":3,"parameterNumberName":"V-component_of_WINDS"},"data":[0,0,0,0,0,0,0,0,0,0,0,0,0,0,0,0,0,0,0,0,0,0,0,0,0,0,0,0,0,0,0,0,0,0,0,0,0,0,0,0,0,0,0,0,0,0,0,0,0,0,0,0,0,0,0,0,0,0,2.235,2.2352,0,2.2569,2.2572,2.2574,2.2651,2.265,2.2649,2.2648,2.2871,2.2878,2.2884,0,0,0,0,0,0,0,0,0,0,0,0,0,2.1996,2.2002,2.2349,2.2352,2.2355,2.2569,2.2572,2.2575,2.2651,2.265,2.2649,2.2648,2.2869,2.2877,2.2885,0,0,0,0,0,0,0,0,0,0,0,0,0,2.2176,2.2004,2.2349,2.2419,2.2427,2.2568,2.2572,2.2576,2.2651,2.265,2.2649,2.2647,2.2866,2.2876,2.2886,2.2974,0,0,2.2917,2.2921,0,0,0,0,0,0,0,0,2.2165,2.2189,2.2406,2.2414,2.2424,2.2581,2.2529,2.2709,2.2651,2.2566,2.2648,2.2647,2.2776,2.2793,2.2837,2.2984,2.2994,2.2918,2.2924,2.2928,2.2931,0,0,0,0,0,0,0,2.2153,2.218,2.2436,2.2409,2.242,2.2439,2.2463,2.2564,2.2675,2.2573,2.2579,2.2604,2.278,2.2827,2.2843,2.2997,2.2918,2.2926,2.2933,2.2937,2.323,2.3232,0,0,0,0,0,0,2.2129,2.2169,2.2429,2.2443,2.2289,2.2447,2.2474,2.2532,2.2674,2.2695,2.2605,2.2607,2.2811,2.2831,2.2851,2.2965,2.2928,2.2938,2.2943,2.3228,2.323,2.3232,0,0,0,0,0,0,2.2121,2.2151,2.2421,2.2308,2.2344,2.2454,2.2519,2.2537,2.2584,2.2699,2.2719,2.2633,2.281,2.2837,2.2943,2.2973,2.2942,2.2951,2.3226,2.3229,2.3231,2.3191,0,0,0,0,0,0,2.211,2.2148,2.2182,2.2308,2.2349,2.2509,2.2521,2.2542,2.2601,2.2606,2.2729,2.2749,2.2811,2.2928,2.2953,2.2987,2.2959,2.3224,2.3227,2.3231,2.319,2.3192,2.3193,0,0,0,0,0,2.2098,2.2161,2.2183,2.2214,2.2394,2.251,2.2534,2.2606,2.2603,2.2639,2.2713,2.2745,2.2966,2.2938,2.2968,2.3004,2.3222,2.3226,2.323,2.3189,2.3191,2.3193,0,0,0,0,0,0,2.2033,2.2178,2.2205,2.2311,2.2398,2.2523,2.2569,2.2605,2.2694,2.2694,2.2779,2.2806,2.2907,2.2966,2.2933,2.3098,2.3096,2.3106,2.3055,2.3058,2.3059,2.3042,2.2968,0,0,0,0,0,2.2032,2.2115,2.2237,2.2318,2.2361,2.2458,2.2511,2.2559,2.2652,2.2689,2.2771,2.286,2.2951,2.3008,2.3097,2.32,2.3228,2.324,2.3241,2.3242,2.3249,2.331,2.3317,2.3245,2.3245,2.3245,0,0,2.2029,2.2118,2.2165,2.2308,2.2381,2.2465,2.2488,2.2575,2.2639,2.2702,2.2809,2.2872,2.2977,2.3083,2.3134,2.3136,2.3276,2.3247,2.3247,2.3254,2.3315,2.3322,2.3328,2.3248,2.3247,2.3247,0,0,2.2066,2.2142,2.2219,2.2293,2.2405,2.2469,2.2488,2.2609,2.2654,2.2762,2.2813,2.289,2.3042,2.3116,2.3173,2.3243,2.3276,2.327,2.3278,2.3337,2.3342,2.3348,2.3373,2.3382,2.3277,2.3277,2.3277,0,2.2048,2.2177,2.2254,2.234,2.2402,2.2466,2.2546,2.2613,2.2747,2.2789,2.279,2.2985,2.306,2.3185,2.3203,2.3247,2.3272,2.3255,2.3335,2.3342,2.3348,2.3373,2.3383,2.3276,2.3276,2.3276,2.3276,0,2.215,2.2239,2.2288,2.2418,2.2486,2.2568,2.2658,2.2718,2.2761,2.2825,2.2936,2.303,2.314,2.3173,2.3215,2.3305,2.3303,2.3319,2.3319,2.3352,2.3377,2.3388,2.3274,2.3274,2.3275,2.3275,0,0,2.215,2.2325,2.2341,2.2402,2.2532,2.2602,2.2688,2.2797,2.2847,2.2939,2.3013,2.3143,2.316,2.3225,2.3276,2.3328,2.3379,2.3338,2.3341,2.3342,2.3485,2.3472,2.3482,2.3402,2.3405,2.3406,2.3477,0,2.2205,2.2362,2.2435,2.2559,2.2643,2.2707,2.2783,2.287,2.2934,2.3015,2.3086,2.3177,2.3191,2.3231,2.3285,2.3361,2.3409,2.3357,2.3473,2.3476,2.3444,2.3496,2.3482,2.3543,2.3487,2.3489,2.349,0,2.2289,2.2382,2.2515,2.2637,2.2675,2.2741,2.2849,2.2925,2.3027,2.307,2.3145,2.3195,2.3289,2.3284,2.3415,2.3379,2.3431,2.3476,2.348,2.3493,2.3484,2.351,2.3565,2.3574,2.3506,2.3505,2.3504,0,2.2276,2.2435,2.2536,2.2586,2.2731,2.2776,2.2838,2.2939,2.3001,2.3096,2.3137,2.324,2.3297,2.3376,2.3454,2.3442,2.3578,2.3579,2.3617,2.3615,2.3641,2.3638,2.3705,2.3675,2.3675,2.3675,2.3675,0,2.2329,2.2408,2.2533,2.2594,2.2685,2.277,2.2858,2.2925,2.3015,2.3092,2.3153,2.3224,2.3323,2.3406,2.3467,2.3568,2.3593,2.363,2.3646,2.3625,2.362,2.3659,2.3657,2.3677,2.3677,2.3676,2.3676,0,2.233,2.2416,2.2531,2.266,2.2694,2.2755,2.2866,2.2929,2.2997,2.3094,2.3121,2.3228,2.333,2.3416,2.3549,2.3591,2.3695,2.3713,2.366,2.3668,2.3702,2.3697,2.3796,2.3813,2.3771,2.3771,2.3772,0,2.2357,2.242,2.2556,2.2613,2.2675,2.2764,2.2829,2.2916,2.298,2.3103,2.3151,2.3258,2.3348,2.3507,2.3597,2.37,2.3721,2.3749,2.3737,2.3715,2.3722,2.3717,2.3725,2.3749,2.3749,2.3749,2.3749,0,2.2397,2.2438,2.2528,2.2635,2.271,2.2798,2.2887,2.293,2.3034,2.3103,2.3209,2.3279,2.3417,2.3522,2.3635,2.37,2.3742,2.3752,2.3767,2.3745,2.3713,2.3732,2.3662,2.3749,2.3749,2.3749,2.3749,2.3749,2.2413,2.2473,2.2579,2.2678,2.2755,2.2838,2.2904,2.2982,2.3072,2.3191,2.3238,2.3346,2.3449,2.3606,2.3672,2.3758,2.3764,2.3784,2.3789,2.3793,2.379,2.37,2.3779,2.3779,2.3779,2.3779,2.3779,0,2.2457,2.2529,2.262,2.2744,2.2823,2.2857,2.2959,2.3022,2.3117,2.321,2.3298,2.3421,2.3524,2.3624,2.3732,2.3783,2.3805,2.3808,2.3805,2.382,2.3779,2.3755,2.3789,2.3789,2.3789,2.3789,2.3789,2.3788,2.2489,2.2592,2.2645,2.2788,2.286,2.2967,2.3023,2.31,2.3175,2.3309,2.3396,2.3461,2.3557,2.3674,2.3771,2.3798,2.3835,2.3833,2.3865,2.3824,2.3822,2.382,2.3799,2.3841,2.3841,2.3899,2.39,2.39]}]]